Weather in Gori

Georgia     41˚58′54″N   44˚06′42″E
temp.,
°C
wind,
m/s
gust,
m/s
humid.,
%
clouds,
%
prec.,
mm/h
press.,
hPa
HPBL,
m
30 november, mon
mon3001:00+3˚ese4779100 0.0 1025203
04:00+3˚ese4685100 0.0 1024177
07:00+2˚ese3686100 0.0 1024161
10:00+4˚e4677100 0.0 1023286
13:00+7˚e5668100 0.0 1021477
16:00+7˚e6765100 0.0 1021571
19:00+4˚ese5877100 0.0 1022232
22:00+3˚ese478391 0.0 1023247
1 december, tue
tue101:00+3˚e589347 0.0 1023309
04:00+3˚ese589049 0.0 1023345
07:00+3˚ese578965 0.0 1023345
10:00+4˚e578255 0.0 1023422
13:00+5˚e577640 0.0 1021486
16:00+6˚e567225 0.0 1021440
19:00+4˚ese34810 0.0 102394
22:00+3˚ese23750 0.0 102549
2 december, wed
wed201:00+2˚ese237321 0.0 102542
04:00+1˚ese226845 0.0 102530
07:00+1˚ese226510 0.0 102522
10:00+3˚e22575 0.0 1024120
13:00+7˚e35490 0.0 1023409
16:00+8˚e45556 0.0 1022393
19:00+5˚ese337044 0.0 102476
22:00+4˚ese367049 0.0 1025138
3 december, thu
thu301:00+3˚ese46727 0.0 1026146
04:00+2˚ese34744 0.0 1026105
07:00+1˚ese34770 0.0 102791
10:00+3˚e47700 0.0 1027287
13:00+7˚e67650 0.0 1026569
16:00+7˚e68630 0.0 1025598
19:00+4˚ese47730 0.0 1027201
22:00+3˚ese47760 0.0 1028219
4 december, fri
fri401:00+2˚ese47800 0.0 1028191
04:00+2˚ese48850 0.0 1028196
07:00+2˚ese47870 0.0 1028178
10:00+3˚e68831 0.0 1028366
13:00+7˚e786610 0.0 1026692
16:00+7˚e68636 0.0 1025651
19:00+4˚ese587925 0.0 1027246
22:00+3˚ese588728 0.0 1027279